| time (UTC) | temp F | wind direction | speed knots | gust knots | rain 1hr in | rain 24hr in | rain mn in | humidity % | barometer mb |
| 20260508193924 | 64 | 30 | 4.3 | 0.0 | 0.00 | 0.00 | 0.12 | 87 | 1013.2 |
| 20260508192936 | 64 | 58 | 4.3 | 0.0 | 0.00 | 0.00 | 0.12 | 87 | 1013.1 |
| 20260508191929 | 64 | 67 | 3.5 | 0.0 | 0.00 | 0.00 | 0.12 | 87 | 1013.2 |
| 20260508190925 | 64 | 53 | 3.5 | 0.0 | 0.00 | 0.00 | 0.12 | 86 | 1013.2 |
| 20260508185936 | 65 | 69 | 3.5 | 0.0 | 0.00 | 0.00 | 0.12 | 86 | 1013.1 |
| 20260508184927 | 65 | 67 | 2.6 | 0.0 | 0.00 | 0.00 | 0.12 | 86 | 1013.1 |
| 20260508183924 | 65 | 65 | 3.5 | 0.0 | 0.00 | 0.00 | 0.12 | 85 | 1013.0 |
| 20260508182936 | 65 | 69 | 4.3 | 0.0 | 0.00 | 0.00 | 0.12 | 85 | 1012.8 |
| 20260508173928 | 66 | 96 | 3.5 | 0.0 | 0.00 | 0.00 | 0.12 | 83 | 1012.6 |
| 20260508172918 | 66 | 91 | 3.5 | 0.0 | 0.00 | 0.00 | 0.12 | 82 | 1012.6 |
| 20260508170928 | 66 | 131 | 2.6 | 0.0 | 0.00 | 0.00 | 0.12 | 81 | 1012.4 |
| 20260508165921 | 66 | 91 | 4.3 | 0.0 | 0.00 | 0.00 | 0.12 | 81 | 1012.4 |
| 20260508164933 | 67 | 96 | 3.5 | 0.0 | 0.00 | 0.00 | 0.12 | 82 | 1012.3 |
| 20260508163930 | 67 | 119 | 4.3 | 0.0 | 0.00 | 0.00 | 0.12 | 82 | 1012.2 |
| 20260508162923 | 67 | 119 | 3.5 | 0.0 | 0.00 | 0.00 | 0.12 | 82 | 1012.2 |
| 20260508161935 | 67 | 80 | 3.5 | 0.0 | 0.00 | 0.00 | 0.12 | 83 | 1012.1 |
| 20260508160927 | 67 | 98 | 4.3 | 0.0 | 0.00 | 0.00 | 0.12 | 84 | 1011.9 |
| 20260508155921 | 66 | 113 | 5.2 | 0.0 | 0.00 | 0.00 | 0.12 | 84 | 1011.9 |
| 20260508154934 | 67 | 108 | 4.3 | 0.0 | 0.00 | 0.00 | 0.12 | 84 | 1012.0 |
| 20260508153928 | 67 | 98 | 3.5 | 0.0 | 0.00 | 0.00 | 0.12 | 85 | 1011.8 |
| 20260508152925 | 67 | 107 | 3.5 | 0.0 | 0.00 | 0.00 | 0.12 | 84 | 1011.9 |
| 20260508151916 | 67 | 146 | 2.6 | 0.0 | 0.00 | 0.00 | 0.12 | 84 | 1011.9 |
| 20260508145923 | 66 | 36 | 4.3 | 0.0 | 0.00 | 0.00 | 0.12 | 85 | 1012.2 |
| 20260508144919 | 66 | 80 | 4.3 | 0.0 | 0.00 | 0.00 | 0.12 | 88 | 1012.3 |
| 20260508143930 | 65 | 74 | 5.2 | 0.0 | 0.00 | 0.00 | 0.12 | 89 | 1012.4 |
| 20260508142923 | 65 | 71 | 4.3 | 0.0 | 0.00 | 0.00 | 0.12 | 89 | 1012.5 |
| 20260508140934 | 65 | 44 | 6.1 | 0.0 | 0.00 | 0.00 | 0.12 | 90 | 1012.0 |
| 20260508135925 | 65 | 73 | 6.1 | 0.0 | 0.00 | 0.00 | 0.12 | 90 | 1012.0 |
| 20260508131923 | 65 | 351 | 3.5 | 0.0 | 0.00 | 0.00 | 0.02 | 86 | 1013.8 |
| 20260508130936 | 65 | 49 | 4.3 | 0.0 | 0.00 | 0.00 | 0.00 | 85 | 1013.8 |
| 20260508125927 | 65 | 74 | 6.1 | 0.0 | 0.00 | 0.00 | 0.00 | 85 | 1013.5 |
| 20260508124923 | 66 | 84 | 5.2 | 0.0 | 0.00 | 0.00 | 0.00 | 84 | 1013.5 |
| 20260508122926 | 66 | 78 | 5.2 | 0.0 | 0.00 | 0.00 | 0.00 | 83 | 1013.4 |
| 20260508121937 | 66 | 58 | 5.2 | 0.0 | 0.00 | 0.00 | 0.00 | 83 | 1013.6 |
| 20260508115925 | 67 | 105 | 7.0 | 0.0 | 0.00 | 0.00 | 0.00 | 82 | 1013.2 |
| 20260508114918 | 66 | 115 | 6.1 | 0.0 | 0.00 | 0.00 | 0.00 | 82 | 1013.1 |
| 20260508113929 | 67 | 80 | 7.0 | 0.0 | 0.00 | 0.00 | 0.00 | 82 | 1013.0 |
| 20260508112927 | 66 | 67 | 7.8 | 0.0 | 0.00 | 0.00 | 0.00 | 81 | 1012.9 |
| 20260508111919 | 66 | 104 | 7.0 | 0.0 | 0.00 | 0.00 | 0.00 | 81 | 1012.8 |
| 20260508110931 | 66 | 51 | 6.1 | 0.0 | 0.00 | 0.00 | 0.00 | 81 | 1012.9 |
| 20260508104921 | 66 | 68 | 7.0 | 0.0 | 0.00 | 0.00 | 0.00 | 82 | 1012.9 |
| 20260508102927 | 67 | 58 | 4.3 | 0.0 | 0.00 | 0.00 | 0.00 | 79 | 1013.3 |
| 20260508101922 | 67 | 59 | 3.5 | 0.0 | 0.00 | 0.00 | 0.00 | 78 | 1013.3 |
| 20260508095928 | 68 | 59 | 5.2 | 0.0 | 0.00 | 0.00 | 0.00 | 77 | 1013.0 |
| 20260508094920 | 67 | 63 | 5.2 | 0.0 | 0.00 | 0.00 | 0.00 | 77 | 1013.0 |
| 20260508093936 | 66 | 65 | 6.1 | 0.0 | 0.00 | 0.00 | 0.00 | 78 | 1012.9 |
| 20260508092929 | 66 | 62 | 6.1 | 0.0 | 0.00 | 0.00 | 0.00 | 80 | 1012.8 |
| 20260508090936 | 65 | 44 | 7.0 | 0.0 | 0.00 | 0.00 | 0.00 | 82 | 1012.5 |
| 20260508085932 | 65 | 65 | 7.8 | 0.0 | 0.00 | 0.00 | 0.00 | 83 | 1012.5 |
| 20260508084923 | 65 | 42 | 5.2 | 0.0 | 0.00 | 0.00 | 0.00 | 85 | 1012.6 |
| 20260508083936 | 64 | 23 | 5.2 | 0.0 | 0.00 | 0.00 | 0.00 | 86 | 1012.9 |
| 20260508082932 | 64 | 360 | 6.1 | 0.0 | 0.00 | 0.00 | 0.00 | 87 | 1012.7 |
| 20260508081924 | 64 | 16 | 5.2 | 0.0 | 0.00 | 0.00 | 0.00 | 87 | 1012.9 |
| 20260508080936 | 63 | 13 | 6.1 | 0.0 | 0.00 | 0.00 | 0.00 | 87 | 1012.9 |
| 20260508075927 | 63 | 19 | 7.0 | 0.0 | 0.00 | 0.00 | 0.00 | 88 | 1012.8 |
| 20260508074923 | 63 | 12 | 5.2 | 0.0 | 0.00 | 0.00 | 0.00 | 88 | 1012.7 |
| 20260508073937 | 63 | 26 | 5.2 | 0.0 | 0.00 | 0.00 | 0.00 | 89 | 1012.6 |
| 20260508072928 | 63 | 13 | 3.5 | 0.0 | 0.00 | 0.00 | 0.00 | 89 | 1012.6 |
| 20260508071923 | 62 | 12 | 3.5 | 0.0 | 0.00 | 0.00 | 0.00 | 89 | 1012.6 |
| 20260508070934 | 62 | 360 | 4.3 | 0.0 | 0.00 | 0.00 | 0.00 | 89 | 1012.6 |
| 20260508062932 | 61 | 5 | 6.1 | 0.0 | 0.00 | 0.00 | 0.00 | 90 | 1012.0 |
| 20260508061924 | 61 | 24 | 3.5 | 0.0 | 0.00 | 0.00 | 0.00 | 91 | 1012.2 |
| 20260508060937 | 61 | 22 | 3.5 | 0.0 | 0.00 | 0.00 | 0.00 | 91 | 1011.8 |
| 20260508054926 | 60 | 40 | 1.7 | 0.0 | 0.00 | 0.00 | 0.00 | 91 | 1011.8 |
| 20260508051927 | 60 | 40 | 3.5 | 0.0 | 0.00 | 0.00 | 0.00 | 90 | 1011.5 |
| 20260508045919 | 60 | 40 | 3.5 | 0.0 | 0.00 | 0.00 | 0.00 | 90 | 1011.1 |
| 20260508044930 | 60 | 28 | 4.3 | 0.0 | 0.00 | 0.00 | 0.00 | 90 | 1011.2 |
| 20260508043928 | 60 | 360 | 3.5 | 0.0 | 0.00 | 0.00 | 0.00 | 90 | 1011.2 |
| 20260508042919 | 60 | 5 | 4.3 | 0.0 | 0.00 | 0.00 | 0.00 | 90 | 1011.2 |
| 20260508041930 | 60 | 355 | 5.2 | 0.0 | 0.00 | 0.00 | 0.00 | 91 | 1011.0 |
| 20260508040922 | 60 | 11 | 5.2 | 0.0 | 0.00 | 0.00 | 0.00 | 91 | 1010.8 |
| 20260508034932 | 60 | 346 | 6.1 | 0.0 | 0.00 | 0.00 | 0.00 | 90 | 1010.9 |
| 20260508033924 | 60 | 350 | 6.1 | 0.0 | 0.00 | 0.00 | 0.00 | 90 | 1011.1 |
| 20260508032937 | 61 | 5 | 6.1 | 0.0 | 0.00 | 0.00 | 0.00 | 90 | 1011.2 |
| 20260508031933 | 60 | 5 | 6.1 | 0.0 | 0.00 | 0.00 | 0.00 | 90 | 1011.0 |
| 20260508030925 | 60 | 5 | 7.8 | 0.0 | 0.00 | 0.00 | 0.00 | 90 | 1010.9 |
| 20260508024936 | 60 | 19 | 7.8 | 0.0 | 0.00 | 0.00 | 0.00 | 89 | 1011.0 |
| 20260508023928 | 60 | 9 | 7.8 | 0.0 | 0.00 | 0.00 | 0.00 | 89 | 1011.2 |
| 20260508022919 | 60 | 355 | 8.7 | 0.0 | 0.00 | 0.00 | 0.00 | 88 | 1011.2 |
| 20260508021932 | 60 | 30 | 8.7 | 0.0 | 0.00 | 0.00 | 0.00 | 89 | 1011.1 |
| 20260508020929 | 61 | 360 | 7.8 | 0.0 | 0.00 | 0.00 | 0.00 | 89 | 1011.3 |
| 20260508015920 | 60 | 17 | 7.0 | 0.0 | 0.00 | 0.00 | 0.00 | 89 | 1011.4 |
| 20260508014933 | 60 | 9 | 7.0 | 0.0 | 0.00 | 0.00 | 0.00 | 89 | 1011.5 |
| 20260508013929 | 60 | 17 | 7.8 | 0.0 | 0.00 | 0.00 | 0.00 | 89 | 1011.4 |
| 20260508011936 | 60 | 5 | 7.8 | 0.0 | 0.00 | 0.00 | 0.00 | 89 | 1011.5 |
| 20260508010930 | 60 | 12 | 8.7 | 0.0 | 0.00 | 0.00 | 0.00 | 89 | 1011.5 |
| 20260508005925 | 60 | 5 | 7.0 | 0.0 | 0.00 | 0.00 | 0.00 | 90 | 1011.6 |
| 20260508004937 | 60 | 346 | 6.1 | 0.0 | 0.00 | 0.00 | 0.00 | 90 | 1011.8 |
| 20260508001921 | 60 | 15 | 8.7 | 0.0 | 0.00 | 0.00 | 0.00 | 90 | 1011.6 |
| 20260508000931 | 60 | 360 | 8.7 | 0.0 | 0.00 | 0.00 | 0.00 | 90 | 1011.4 |
| 20260507235923 | 60 | 20 | 8.7 | 0.0 | 0.00 | 0.00 | 0.59 | 90 | 1011.5 |
| 20260507234936 | 60 | 11 | 7.0 | 0.0 | 0.00 | 0.00 | 0.59 | 90 | 1011.4 |
| 20260507233932 | 60 | 346 | 7.8 | 0.0 | 0.00 | 0.00 | 0.59 | 90 | 1011.4 |
| 20260507232925 | 59 | 5 | 8.7 | 0.0 | 0.00 | 0.00 | 0.59 | 90 | 1011.4 |
| 20260507230933 | 59 | 40 | 6.1 | 0.0 | 0.00 | 0.00 | 0.59 | 90 | 1011.4 |
| 20260507225928 | 59 | 39 | 7.8 | 0.0 | 0.00 | 0.00 | 0.59 | 91 | 1011.5 |
| 20260507224922 | 59 | 18 | 8.7 | 0.0 | 0.00 | 0.00 | 0.59 | 91 | 1011.6 |
| 20260507223917 | 59 | 336 | 7.0 | 0.0 | 0.00 | 0.00 | 0.59 | 91 | 1011.9 |
| 20260507221925 | 59 | 5 | 6.1 | 0.0 | 0.00 | 0.00 | 0.59 | 91 | 1011.9 |
| 20260507220917 | 58 | 5 | 8.7 | 0.0 | 0.00 | 0.00 | 0.59 | 91 | 1012.0 |
| 20260507215928 | 58 | 355 | 8.7 | 0.0 | 0.00 | 0.00 | 0.59 | 91 | 1012.0 |
| 20260507214925 | 58 | 11 | 9.6 | 0.0 | 0.00 | 0.00 | 0.59 | 91 | 1011.9 |
| 20260507213938 | 58 | 18 | 9.6 | 0.0 | 0.00 | 0.00 | 0.59 | 90 | 1012.0 |
| 20260507212928 | 58 | 13 | 9.6 | 0.0 | 0.00 | 0.00 | 0.59 | 90 | 1012.1 |
| 20260507211925 | 58 | 12 | 7.8 | 0.0 | 0.00 | 0.00 | 0.59 | 90 | 1012.2 |
| 20260507210917 | 58 | 11 | 7.8 | 0.0 | 0.00 | 0.00 | 0.57 | 90 | 1012.3 |
| 20260507205931 | 58 | 355 | 8.7 | 0.0 | 0.00 | 0.00 | 0.54 | 89 | 1012.3 |
| 20260507202918 | 58 | 21 | 10.4 | 0.0 | 0.00 | 0.00 | 0.43 | 87 | 1012.2 |
| 20260507201930 | 58 | 360 | 10.4 | 0.0 | 0.00 | 0.00 | 0.41 | 87 | 1012.0 |
| 20260507200922 | 59 | 5 | 9.6 | 0.0 | 0.00 | 0.00 | 0.39 | 86 | 1012.2 |
| 20260507194931 | 59 | 346 | 8.7 | 0.0 | 0.00 | 0.00 | 0.35 | 86 | 1012.1 |